UAL1328 EGKK-EDDF

Flight info

Callsign UAL1328
Flight time 1h 3m
Altitude 35000
Route DVR2P DVR UL9 KONAN UL607 KOK DCT REMBA UL607 SPI T180 NIVNU/N0434F230 T847 IMCOM IMCOM1B
Aircraft B77L/H-SDE1E2E3FGHIJ2J3J4J5M1RWXY/LB1D1

Departure

Time 2026-05-05 19:52
Airport London Gatwick Airport (EGKK)

Arrival

Time 2026-05-05 20:56
Airport Frankfurt Main Airport (EDDF)
Time Latitude Longitude Altitude Speed Heading
2026-05-05 19:10 51.15888 -0.17222 217 ft 0 kts 348°
2026-05-05 19:25 51.15876 -0.17216 221 ft 3 kts 319°
2026-05-05 19:25 51.15865 -0.17190 221 ft 3 kts 275°
2026-05-05 19:26 51.15867 -0.17160 220 ft 3 kts 231°
2026-05-05 19:26 51.15879 -0.17143 216 ft 0 kts 201°
2026-05-05 19:31 51.15878 -0.17143 216 ft 0 kts 201°
2026-05-05 19:31 51.15844 -0.17164 222 ft 11 kts 202°
2026-05-05 19:31 51.15814 -0.17201 220 ft 0 kts 225°
2026-05-05 19:32 51.15798 -0.17262 220 ft 10 kts 258°
2026-05-05 19:32 51.15781 -0.17379 214 ft 11 kts 256°
2026-05-05 19:32 51.15763 -0.17506 219 ft 12 kts 258°
2026-05-05 19:33 51.15745 -0.17640 218 ft 13 kts 258°
2026-05-05 19:33 51.15811 -0.17207 220 ft 0 kts 229°
2026-05-05 19:35 51.15803 -0.17234 216 ft 11 kts 246°
2026-05-05 19:36 51.15781 -0.17366 212 ft 12 kts 257°
2026-05-05 19:36 51.15748 -0.17474 218 ft 11 kts 212°
2026-05-05 19:36 51.15672 -0.17479 215 ft 11 kts 170°
2026-05-05 19:36 51.15597 -0.17453 217 ft 11 kts 173°
2026-05-05 19:37 51.15537 -0.17513 214 ft 11 kts 241°
2026-05-05 19:37 51.15519 -0.17632 215 ft 11 kts 258°
2026-05-05 19:37 51.15505 -0.17752 218 ft 11 kts 259°
2026-05-05 19:37 51.15489 -0.17871 221 ft 11 kts 257°
2026-05-05 19:38 51.15472 -0.17989 219 ft 11 kts 256°
2026-05-05 19:38 51.15456 -0.18109 217 ft 11 kts 259°
2026-05-05 19:38 51.15439 -0.18227 213 ft 11 kts 246°
2026-05-05 19:38 51.15372 -0.18267 214 ft 11 kts 173°
2026-05-05 19:39 51.15299 -0.18246 220 ft 10 kts 168°
2026-05-05 19:39 51.15277 -0.18239 216 ft 0 kts 168°
2026-05-05 19:39 51.15273 -0.18237 215 ft 5 kts 167°
2026-05-05 19:39 51.15197 -0.18266 217 ft 13 kts 233°
2026-05-05 19:40 51.15172 -0.18409 221 ft 13 kts 257°
2026-05-05 19:40 51.15152 -0.18553 213 ft 13 kts 259°
2026-05-05 19:40 51.15134 -0.18700 209 ft 13 kts 258°
2026-05-05 19:40 51.15114 -0.18846 218 ft 13 kts 258°
2026-05-05 19:41 51.15095 -0.18991 211 ft 13 kts 258°
2026-05-05 19:41 51.15075 -0.19137 218 ft 13 kts 258°
2026-05-05 19:41 51.15055 -0.19283 219 ft 13 kts 258°
2026-05-05 19:41 51.15035 -0.19434 214 ft 16 kts 258°
2026-05-05 19:42 51.15010 -0.19615 218 ft 17 kts 257°
2026-05-05 19:42 51.14983 -0.19797 216 ft 17 kts 257°
2026-05-05 19:42 51.14959 -0.19979 211 ft 17 kts 257°
2026-05-05 19:42 51.14934 -0.20162 213 ft 17 kts 258°
2026-05-05 19:43 51.14909 -0.20346 215 ft 17 kts 257°
2026-05-05 19:43 51.14883 -0.20529 214 ft 17 kts 257°
2026-05-05 19:43 51.14859 -0.20709 210 ft 17 kts 257°
2026-05-05 19:43 51.14833 -0.20893 212 ft 17 kts 257°
2026-05-05 19:44 51.14813 -0.21036 213 ft 0 kts 257°
2026-05-05 19:44 51.14806 -0.21088 214 ft 14 kts 257°
2026-05-05 19:44 51.14777 -0.21235 210 ft 14 kts 256°
2026-05-05 19:44 51.14755 -0.21367 217 ft 6 kts 240°
2026-05-05 19:45 51.14752 -0.21373 216 ft 0 kts 233°
2026-05-05 19:47 51.14748 -0.21377 215 ft 4 kts 222°
2026-05-05 19:47 51.14688 -0.21381 215 ft 10 kts 155°
2026-05-05 19:48 51.14632 -0.21334 214 ft 0 kts 161°
2026-05-05 19:48 51.14626 -0.21331 213 ft 0 kts 161°
2026-05-05 19:51 51.14569 -0.21293 220 ft 19 kts 149°
2026-05-05 19:51 51.14532 -0.21038 216 ft 35 kts 78°
2026-05-05 19:51 51.14628 -0.20352 219 ft 95 kts 77°
2026-05-05 19:52 51.14812 -0.19027 215 ft 148 kts 77°
2026-05-05 19:52 51.15061 -0.17294 416 ft 164 kts 77°
2026-05-05 19:52 51.15316 -0.15503 830 ft 167 kts 78°
2026-05-05 19:52 51.15566 -0.13618 1083 ft 185 kts 78°
2026-05-05 19:53 51.15852 -0.11497 1313 ft 205 kts 77°
2026-05-05 19:53 51.16173 -0.09159 1533 ft 227 kts 78°
2026-05-05 19:53 51.16523 -0.06624 1901 ft 238 kts 77°
2026-05-05 19:53 51.16872 -0.04091 2300 ft 239 kts 78°
2026-05-05 19:54 51.16964 -0.01364 2865 ft 251 kts 93°
2026-05-05 19:54 51.16835 0.01435 3743 ft 256 kts 90°
2026-05-05 19:54 51.16764 0.04258 4588 ft 261 kts 88°
2026-05-05 19:54 51.16708 0.07178 5445 ft 265 kts 88°
2026-05-05 19:55 51.16652 0.10149 6040 ft 270 kts 89°
2026-05-05 19:55 51.16596 0.13137 6115 ft 275 kts 89°
2026-05-05 19:55 51.16539 0.16202 6139 ft 274 kts 88°
2026-05-05 19:55 51.16700 0.19166 6146 ft 266 kts 73°
2026-05-05 19:56 51.17198 0.22007 6170 ft 267 kts 71°
2026-05-05 19:56 51.17712 0.24843 6264 ft 264 kts 71°
2026-05-05 19:56 51.18229 0.27686 6270 ft 270 kts 71°
2026-05-05 19:56 51.18744 0.30511 6433 ft 263 kts 71°
2026-05-05 19:57 51.19258 0.33321 6895 ft 265 kts 71°
2026-05-05 19:57 51.19605 0.35211 7214 ft 270 kts 71°
2026-05-05 19:57 51.20322 0.39078 7816 ft 276 kts 71°
2026-05-05 19:57 51.20874 0.42025 8159 ft 279 kts 71°
2026-05-05 19:58 51.21438 0.45019 8123 ft 282 kts 71°
2026-05-05 19:58 51.21903 0.48033 8177 ft 279 kts 85°
2026-05-05 19:58 51.21761 0.51093 8800 ft 281 kts 95°
2026-05-05 19:58 51.21518 0.54228 9494 ft 287 kts 95°
2026-05-05 19:59 51.21303 0.57385 10253 ft 290 kts 94°
2026-05-05 19:59 51.21099 0.60657 10705 ft 305 kts 94°
2026-05-05 19:59 51.20896 0.64168 10883 ft 329 kts 93°
2026-05-05 19:59 51.20689 0.67950 11062 ft 353 kts 93°
2026-05-05 20:00 51.20479 0.71946 11437 ft 370 kts 93°
2026-05-05 20:00 51.20266 0.76080 12103 ft 377 kts 93°
2026-05-05 20:00 51.20053 0.80288 12882 ft 382 kts 93°
2026-05-05 20:00 51.19843 0.84463 13726 ft 384 kts 93°
2026-05-05 20:01 51.19629 0.88727 14447 ft 388 kts 94°
2026-05-05 20:01 51.19411 0.93065 15093 ft 393 kts 93°
2026-05-05 20:01 51.19192 0.97401 15890 ft 393 kts 94°
2026-05-05 20:01 51.18970 1.01770 16616 ft 397 kts 94°
2026-05-05 20:02 51.18744 1.06214 17174 ft 405 kts 94°
2026-05-05 20:02 51.18512 1.10711 17976 ft 406 kts 94°
2026-05-05 20:02 51.18281 1.15176 18573 ft 411 kts 94°
2026-05-05 20:02 51.18042 1.19759 19081 ft 416 kts 94°
2026-05-05 20:03 51.17798 1.24390 19716 ft 419 kts 94°
2026-05-05 20:03 51.17551 1.29038 20278 ft 423 kts 94°
2026-05-05 20:03 51.17303 1.33690 20798 ft 428 kts 94°
2026-05-05 20:03 51.17046 1.38456 21376 ft 431 kts 94°
2026-05-05 20:04 51.16785 1.43266 21944 ft 435 kts 95°
2026-05-05 20:04 51.16523 1.48032 22516 ft 438 kts 95°
2026-05-05 20:04 51.16254 1.52914 23087 ft 441 kts 95°
2026-05-05 20:04 51.15981 1.57825 23576 ft 446 kts 95°
2026-05-05 20:05 51.15707 1.62723 24027 ft 449 kts 95°
2026-05-05 20:05 51.15425 1.67719 24538 ft 451 kts 95°
2026-05-05 20:05 51.15143 1.72674 24989 ft 453 kts 96°
2026-05-05 20:05 51.14856 1.77696 25464 ft 456 kts 96°
2026-05-05 20:06 51.14567 1.82710 25910 ft 459 kts 96°
2026-05-05 20:06 51.14270 1.87811 26325 ft 462 kts 96°
2026-05-05 20:06 51.13971 1.92941 26805 ft 463 kts 96°
2026-05-05 20:06 51.13674 1.97994 27348 ft 464 kts 97°
2026-05-05 20:07 51.13367 2.03144 27775 ft 466 kts 98°
2026-05-05 20:07 51.13056 2.08311 28173 ft 469 kts 97°
2026-05-05 20:07 51.12741 2.13513 28541 ft 472 kts 96°
2026-05-05 20:07 51.12426 2.18713 29031 ft 472 kts 97°
2026-05-05 20:08 51.12111 2.23870 29312 ft 476 kts 97°
2026-05-05 20:08 51.11786 2.29153 29619 ft 479 kts 97°
2026-05-05 20:08 51.11460 2.34417 30122 ft 476 kts 97°
2026-05-05 20:08 51.11130 2.39692 30535 ft 475 kts 98°
2026-05-05 20:09 51.10803 2.44878 30928 ft 474 kts 98°
2026-05-05 20:09 51.10471 2.50110 31338 ft 473 kts 98°
2026-05-05 20:09 51.10140 2.55306 31722 ft 472 kts 98°
2026-05-05 20:09 51.09806 2.60501 32132 ft 470 kts 98°
2026-05-05 20:10 51.09367 2.65648 32502 ft 468 kts 103°
2026-05-05 20:10 51.08619 2.70606 32869 ft 465 kts 109°
2026-05-05 20:10 51.07700 2.75524 33241 ft 463 kts 109°
2026-05-05 20:10 51.06776 2.80457 33625 ft 461 kts 109°
2026-05-05 20:11 51.05874 2.85299 33972 ft 460 kts 109°
2026-05-05 20:11 51.04969 2.90189 34222 ft 460 kts 109°
2026-05-05 20:11 51.04065 2.95094 34383 ft 462 kts 109°
2026-05-05 20:11 51.03167 2.99976 34544 ft 464 kts 109°
2026-05-05 20:12 51.02259 3.04911 34753 ft 464 kts 109°
2026-05-05 20:12 51.00441 3.14771 34865 ft 469 kts 109°
2026-05-05 20:13 50.98606 3.24679 34879 ft 466 kts 109°
2026-05-05 20:13 50.96769 3.34539 34881 ft 463 kts 109°
2026-05-05 20:14 50.94941 3.44287 34880 ft 461 kts 109°
2026-05-05 20:14 50.93109 3.54012 34883 ft 461 kts 109°
2026-05-05 20:15 50.91260 3.63768 34884 ft 461 kts 109°
2026-05-05 20:15 50.89411 3.73480 34882 ft 462 kts 109°
2026-05-05 20:16 50.87544 3.83236 34875 ft 464 kts 109°
2026-05-05 20:16 50.85975 3.91396 34879 ft 465 kts 109°
2026-05-05 20:17 50.84079 4.01207 34884 ft 466 kts 109°
2026-05-05 20:17 50.82175 4.11015 34881 ft 467 kts 109°
2026-05-05 20:18 50.80259 4.20833 34886 ft 468 kts 109°
2026-05-05 20:18 50.78339 4.30621 34883 ft 467 kts 109°
2026-05-05 20:19 50.76397 4.40471 34881 ft 467 kts 109°
2026-05-05 20:19 50.74467 4.50210 34884 ft 466 kts 109°
2026-05-05 20:20 50.72529 4.59939 34882 ft 465 kts 109°
2026-05-05 20:20 50.70580 4.69677 34871 ft 464 kts 109°
2026-05-05 20:21 50.68640 4.79327 34869 ft 463 kts 110°
2026-05-05 20:21 50.66680 4.89034 34865 ft 462 kts 110°
2026-05-05 20:22 50.64720 4.98663 34863 ft 461 kts 110°
2026-05-05 20:22 50.62758 5.08236 34865 ft 460 kts 110°
2026-05-05 20:23 50.60787 5.17817 34865 ft 460 kts 110°
2026-05-05 20:23 50.58819 5.27344 34855 ft 459 kts 110°
2026-05-05 20:24 50.56829 5.36934 34855 ft 459 kts 110°
2026-05-05 20:24 50.54843 5.46460 34850 ft 458 kts 110°
2026-05-05 20:25 50.52862 5.55924 34854 ft 458 kts 110°
2026-05-05 20:25 50.50884 5.65412 34850 ft 458 kts 109°
2026-05-05 20:26 50.49089 5.75009 34848 ft 458 kts 108°
2026-05-05 20:26 50.48413 5.78724 34840 ft 458 kts 108°
2026-05-05 20:28 50.48253 5.79606 34840 ft 458 kts 108°
2026-05-05 20:28 50.46487 5.89179 34838 ft 457 kts 108°
2026-05-05 20:29 50.44679 5.98794 34829 ft 458 kts 109°
2026-05-05 20:29 50.42859 6.08368 34120 ft 466 kts 108°
2026-05-05 20:29 50.41929 6.13248 33345 ft 465 kts 108°
2026-05-05 20:30 50.40999 6.18119 32495 ft 464 kts 108°
2026-05-05 20:30 50.40078 6.22937 31667 ft 464 kts 108°
2026-05-05 20:30 50.39154 6.27759 30803 ft 464 kts 108°
2026-05-05 20:30 50.38221 6.32614 30041 ft 463 kts 108°
2026-05-05 20:31 50.37291 6.37414 29371 ft 458 kts 108°
2026-05-05 20:31 50.36485 6.42194 28733 ft 454 kts 103°
2026-05-05 20:31 50.35970 6.47065 28128 ft 450 kts 97°
2026-05-05 20:31 50.35690 6.51930 27563 ft 445 kts 96°
2026-05-05 20:32 50.35419 6.56697 26997 ft 441 kts 97°
2026-05-05 20:32 50.35135 6.61461 26431 ft 438 kts 97°
2026-05-05 20:32 50.34838 6.66228 25851 ft 435 kts 97°
2026-05-05 20:32 50.34542 6.70874 25323 ft 432 kts 97°
2026-05-05 20:33 50.34241 6.75548 24782 ft 430 kts 97°
2026-05-05 20:33 50.33955 6.80224 24243 ft 428 kts 97°
2026-05-05 20:33 50.33669 6.84815 23718 ft 426 kts 99°
2026-05-05 20:33 50.32924 6.89270 23109 ft 420 kts 116°
2026-05-05 20:34 50.31564 6.93318 22544 ft 416 kts 119°
2026-05-05 20:34 50.30280 6.97294 21997 ft 414 kts 117°
2026-05-05 20:34 50.29058 7.01367 21471 ft 412 kts 116°
2026-05-05 20:34 50.27851 7.05457 20942 ft 410 kts 116°
2026-05-05 20:35 50.26668 7.09452 20432 ft 408 kts 116°
2026-05-05 20:35 50.25472 7.13469 19908 ft 406 kts 116°
2026-05-05 20:35 50.24278 7.17464 19408 ft 405 kts 116°
2026-05-05 20:35 50.23081 7.21454 18891 ft 404 kts 116°
2026-05-05 20:36 50.21898 7.25390 18397 ft 403 kts 116°
2026-05-05 20:36 50.20705 7.29352 17851 ft 402 kts 117°
2026-05-05 20:36 50.19517 7.33311 17287 ft 401 kts 115°
2026-05-05 20:36 50.18462 7.37342 16733 ft 401 kts 112°
2026-05-05 20:37 50.17505 7.41439 16233 ft 399 kts 111°
2026-05-05 20:37 50.16669 7.45495 15708 ft 397 kts 104°
2026-05-05 20:37 50.16245 7.49766 15208 ft 398 kts 96°
2026-05-05 20:37 50.16058 7.54118 14703 ft 397 kts 94°
2026-05-05 20:38 50.15935 7.58355 14217 ft 396 kts 94°
2026-05-05 20:38 50.15822 7.62660 13784 ft 395 kts 93°
2026-05-05 20:38 50.15712 7.66918 13394 ft 391 kts 93°
2026-05-05 20:38 50.15607 7.71105 12995 ft 388 kts 93°
2026-05-05 20:39 50.15505 7.75308 12762 ft 383 kts 93°
2026-05-05 20:39 50.15406 7.79469 12659 ft 382 kts 93°
2026-05-05 20:39 50.15307 7.83603 12595 ft 390 kts 93°
2026-05-05 20:39 50.15203 7.87860 12529 ft 393 kts 93°
2026-05-05 20:40 50.15099 7.92095 12501 ft 392 kts 93°
2026-05-05 20:40 50.14993 7.96344 12501 ft 392 kts 93°
2026-05-05 20:40 50.14884 8.00616 12499 ft 392 kts 93°
2026-05-05 20:40 50.14777 8.04858 12489 ft 387 kts 92°
2026-05-05 20:41 50.14831 8.08961 12406 ft 377 kts 87°
2026-05-05 20:41 50.15036 8.12982 12322 ft 363 kts 85°
2026-05-05 20:41 50.15259 8.16801 12227 ft 351 kts 85°
2026-05-05 20:41 50.15462 8.20538 12137 ft 338 kts 86°
2026-05-05 20:42 50.15638 8.24129 12040 ft 324 kts 86°
2026-05-05 20:42 50.15791 8.27566 11767 ft 308 kts 88°
2026-05-05 20:42 50.15925 8.30823 11332 ft 301 kts 88°
2026-05-05 20:42 50.16051 8.34068 10790 ft 297 kts 88°
2026-05-05 20:43 50.16173 8.37278 10226 ft 295 kts 88°
2026-05-05 20:43 50.16289 8.40447 9661 ft 294 kts 88°
2026-05-05 20:43 50.16405 8.43636 9085 ft 291 kts 88°
2026-05-05 20:43 50.16518 8.46778 8523 ft 288 kts 88°
2026-05-05 20:44 50.16627 8.49850 7984 ft 284 kts 88°
2026-05-05 20:44 50.16736 8.52912 7635 ft 275 kts 88°
2026-05-05 20:44 50.16838 8.55836 7466 ft 274 kts 88°
2026-05-05 20:44 50.16943 8.58870 7310 ft 284 kts 88°
2026-05-05 20:45 50.17154 8.65040 6909 ft 284 kts 88°
2026-05-05 20:45 50.17258 8.68108 6711 ft 280 kts 88°
2026-05-05 20:45 50.17360 8.71126 6516 ft 276 kts 88°
2026-05-05 20:46 50.17459 8.74077 6340 ft 273 kts 88°
2026-05-05 20:46 50.17556 8.77024 6147 ft 270 kts 88°
2026-05-05 20:46 50.17653 8.79945 5902 ft 270 kts 88°
2026-05-05 20:46 50.17749 8.82873 5500 ft 270 kts 88°
2026-05-05 20:47 50.17844 8.85767 5087 ft 270 kts 88°
2026-05-05 20:47 50.17938 8.88694 4993 ft 268 kts 88°
2026-05-05 20:47 50.18031 8.91657 4990 ft 276 kts 88°
2026-05-05 20:47 50.18061 8.94624 4956 ft 270 kts 100°
2026-05-05 20:48 50.17395 8.97237 4969 ft 254 kts 132°
2026-05-05 20:48 50.16095 8.98883 4960 ft 230 kts 159°
2026-05-05 20:48 50.14648 8.99649 4948 ft 217 kts 171°
2026-05-05 20:48 50.13173 8.99788 4787 ft 208 kts 191°
2026-05-05 20:49 50.11794 8.99365 4470 ft 199 kts 194°
2026-05-05 20:49 50.10476 8.98966 4145 ft 192 kts 193°
2026-05-05 20:49 50.09197 8.98474 3931 ft 185 kts 208°
2026-05-05 20:49 50.08318 8.97115 3798 ft 180 kts 242°
2026-05-05 20:50 50.07848 8.95312 3679 ft 183 kts 250°
2026-05-05 20:50 50.07437 8.93429 3527 ft 182 kts 250°
2026-05-05 20:50 50.07036 8.91565 3404 ft 179 kts 250°
2026-05-05 20:50 50.06643 8.89730 3254 ft 179 kts 250°
2026-05-05 20:51 50.06254 8.87916 3149 ft 179 kts 251°
2026-05-05 20:51 50.06054 8.86009 2981 ft 180 kts 273°
2026-05-05 20:51 50.06204 8.84067 2893 ft 182 kts 273°
2026-05-05 20:51 50.06309 8.82096 2761 ft 183 kts 272°
2026-05-05 20:52 50.06407 8.80153 2611 ft 181 kts 272°
2026-05-05 20:52 50.06506 8.78207 2486 ft 179 kts 272°
2026-05-05 20:52 50.06605 8.76269 2361 ft 180 kts 272°
2026-05-05 20:52 50.06703 8.74337 2228 ft 180 kts 272°
2026-05-05 20:53 50.06801 8.72397 2114 ft 179 kts 272°
2026-05-05 20:53 50.06835 8.70466 2018 ft 177 kts 257°
2026-05-05 20:53 50.06409 8.68787 2002 ft 163 kts 246°
2026-05-05 20:53 50.06001 8.67077 1608 ft 171 kts 250°
2026-05-05 20:54 50.05630 8.65391 1474 ft 156 kts 247°
2026-05-05 20:54 50.05239 8.63855 1228 ft 149 kts 249°
2026-05-05 20:54 50.04910 8.62404 1008 ft 137 kts 248°
2026-05-05 20:54 50.04548 8.60955 843 ft 148 kts 249°
2026-05-05 20:55 50.04197 8.59453 526 ft 143 kts 248°
2026-05-05 20:55 50.03850 8.57998 394 ft 141 kts 247°
2026-05-05 20:55 50.03543 8.56719 367 ft 103 kts 250°
2026-05-05 20:55 50.03372 8.56001 365 ft 62 kts 249°
2026-05-05 20:56 50.03218 8.55372 359 ft 64 kts 250°
2026-05-05 20:56 50.03182 8.54926 352 ft 34 kts 279°
2026-05-05 20:56 50.03207 8.54707 353 ft 0 kts 280°
2026-05-05 20:57 50.03229 8.54588 355 ft 18 kts 297°
2026-05-05 20:57 50.03326 8.54474 371 ft 13 kts 338°
2026-05-05 20:57 50.03367 8.54449 376 ft 0 kts 339°
2026-05-05 20:58 50.03450 8.54401 378 ft 22 kts 339°
2026-05-05 20:58 50.03584 8.54323 380 ft 8 kts 340°
2026-05-05 20:58 50.03586 8.54322 380 ft 0 kts 340°
2026-05-05 20:59 50.03659 8.54348 378 ft 19 kts 49°
2026-05-05 20:59 50.03714 8.54541 374 ft 20 kts 70°
2026-05-05 20:59 50.03761 8.54745 371 ft 20 kts 69°
2026-05-05 20:59 50.03813 8.54956 369 ft 21 kts 69°
2026-05-05 21:00 50.03865 8.55172 368 ft 21 kts 70°
2026-05-05 21:00 50.03914 8.55386 365 ft 20 kts 70°
2026-05-05 21:00 50.03964 8.55593 367 ft 21 kts 69°
2026-05-05 21:00 50.04017 8.55810 366 ft 21 kts 69°
2026-05-05 21:01 50.04068 8.56025 360 ft 21 kts 70°
2026-05-05 21:01 50.04118 8.56242 359 ft 21 kts 70°
2026-05-05 21:01 50.04170 8.56461 360 ft 21 kts 70°
2026-05-05 21:01 50.04212 8.56638 359 ft 14 kts 70°
2026-05-05 21:02 50.04256 8.56772 360 ft 14 kts 44°
2026-05-05 21:02 50.04342 8.56825 362 ft 14 kts 11°
2026-05-05 21:02 50.04437 8.56851 359 ft 14 kts
2026-05-05 21:02 50.04522 8.56877 355 ft 10 kts 13°
2026-05-05 21:03 50.04555 8.56881 358 ft 0 kts 342°
2026-05-05 21:03 50.04590 8.56828 362 ft 9 kts 296°
2026-05-05 21:03 50.04602 8.56792 365 ft 1 kts 296°
2026-05-05 21:03 50.04602 8.56790 364 ft 0 kts 296°